Hauptseite
METAR-TAF:

METAR-TAF

Flughäfen :

Meppen, Deutschland

Fliegerhorst Meppen

Breite: 52-43-24N, Länge: 007-19-35E, Höhe: 21 m

Beobachtung

Neuester Wetterbericht von vor 38 Minuten, um 01:20 UTC
Wind 2 kt aus unterschiedlichen Richtungen
Temperatur 11°C
Luftfeuchtigkeit 87%
Luftdruck 1019 hPa
Sichtweite 10 km oder mehr

METAR: ETWM 200120Z AUTO VRB02KT 9999 // ////// 11/09 Q1019 ///

Zeit: 03:58 (01:58 UTC)


TAF: fehlend

Wetterbeobachtungen und Prognosen von mehr als 4000 Flughäfen (METAR und TAF Bericht).

Die verfügbaren Stationen werden durch gelbe und rote Markierungen auf der Karte dargestellt.

Führen Sie die Maus auf sie, um den Namen der Station zu sehen.

Darauf klicken, um die Beobachtung von Wetterbeobachtungen und Prognosen zu sehen.

Um die Karte zu ändern : klicken Sie auf den grünen Tasten mit einem schwarzen Kreuz Zum Vergrößern, auf den grünen Button mit einem Gedankenstrich zu verkleinern, oder auf die grünen Pfeile für benachbarte Karten.


METAR-TAF: